FW5195 Weather Reports


time (UTC)temp
C
wind
direction
speed
KPH
gust
KPH
rain 1hr
cm
rain 24hr
cm
rain mn
cm
humidity
%
barometer
mb
20260505024517 26 353 0.0 6.4 0.00 0.05 0.00 71 1013.7
20260505023010 26 26 0.0 4.8 0.00 0.05 0.00 70 1013.9
20260505021504 26 114 0.0 4.8 0.00 0.05 0.00 69 1014.3
20260505020003 26 12 0.0 3.2 0.00 0.05 0.00 70 1014.5
20260505014609 26 345 0.0 0.0 0.00 0.05 0.00 69 1014.6
20260505013109 26 68 0.0 4.8 0.00 0.05 0.00 69 1014.8
20260505011557 26 11 0.0 1.6 0.00 0.05 0.00 69 1015.3
20260505010059 26 329 0.0 0.0 0.00 0.05 0.00 68 1015.4
20260505004559 26 217 0.0 1.6 0.00 0.05 0.00 69 1015.5
20260505003055 26 106 0.0 0.0 0.00 0.05 0.00 71 1015.6
20260505001555 25 294 0.0 3.2 0.00 0.05 0.00 73 1015.8
20260505000106 25 351 0.0 0.0 0.00 0.05 0.00 74 1015.8
20260504234547 25 351 0.0 0.0 0.00 0.05 0.00 75 1015.8
20260504233045 24 349 0.0 0.0 0.00 0.05 0.00 78 1015.9
20260504231541 23 319 0.0 0.0 0.00 0.05 0.00 83 1016.0
20260504230046 22 210 0.0 0.0 0.00 0.05 0.00 90 1016.2
20260504224542 21 249 0.0 0.0 0.00 0.10 0.00 94 1016.2
20260504223037 20 264 0.0 1.6 0.00 0.10 0.00 96 1016.2
20260504221544 20 254 0.0 1.6 0.00 0.10 0.00 97 1016.1
20260504220032 19 242 0.0 1.6 0.00 0.10 0.00 97 1016.0
20260504214526 18 204 0.0 1.6 0.00 0.10 0.00 98 1016.1
20260504213024 18 249 0.0 1.6 0.00 0.10 0.00 98 1016.0
20260504211523 18 226 0.0 0.0 0.00 0.10 0.00 98 1015.8
20260504210023 17 278 0.0 0.0 0.00 0.10 0.00 97 1015.7
20260504204522 17 239 0.0 0.0 0.00 0.10 0.00 97 1015.5
20260504203027 17 232 0.0 0.0 0.00 0.10 0.00 97 1015.4
20260504201521 17 238 0.0 0.0 0.00 0.10 0.00 97 1015.3
20260504200020 17 233 0.0 0.0 0.00 0.10 0.00 97 1015.2
20260504194519 17 237 0.0 0.0 0.00 0.13 0.00 97 1015.1
20260504193019 17 232 0.0 0.0 0.00 0.13 0.00 97 1014.9
20260504191517 17 242 0.0 0.0 0.00 0.13 0.00 97 1014.8
20260504190016 17 242 0.0 0.0 0.00 0.13 0.00 97 1014.6
20260504184518 18 242 0.0 0.0 0.00 0.13 0.00 97 1014.6
20260504183014 18 242 0.0 0.0 0.00 0.13 0.00 97 1014.6
20260504181513 18 244 0.0 0.0 0.00 0.13 0.00 97 1014.5
20260504180012 18 237 0.0 0.0 0.00 0.13 0.00 97 1014.5
20260504174513 18 231 0.0 0.0 0.00 0.33 0.00 97 1014.6
20260504173012 18 231 0.0 0.0 0.00 0.33 0.00 97 1014.5
20260504171512 18 232 0.0 0.0 0.00 0.33 0.00 97 1014.5
20260504081550 21 59 0.0 0.0 0.00 1.22 1.02 87 1015.8
20260504044542 25 3 0.0 8.0 0.00 1.22 1.02 76 1014.8
20260504043048 25 355 0.0 6.4 0.00 1.22 1.02 77 1014.7
20260504041541 26 44 0.0 8.0 0.00 1.22 1.02 74 1014.8
20260504040045 26 50 0.0 9.7 0.00 1.22 1.02 74 1015.0
20260504034542 26 29 0.0 8.0 0.00 1.22 1.02 73 1015.0
20260504033039 26 306 0.0 11.3 0.00 1.22 1.02 74 1015.1
20260504031547 26 68 1.6 9.7 0.00 1.22 1.02 73 1015.3
20260504030041 26 23 0.0 11.3 0.00 1.22 1.02 75 1015.4
20260504024549 25 49 0.0 9.7 0.00 1.22 1.02 76 1015.5